[Iaude] MPEC J222: 2024 JY6 [a=2.44,e=0.67,i=6.5,H=23.6]
    mpec at cfa.harvard.edu 
    mpec at cfa.harvard.edu
       
    Thu May  9 10:01:53 EDT 2024
    
    
  
M.P.E.C. 2024-J222                                  Issued 2024 May 9, 14:00 UT
     The Minor Planet Electronic Circulars contain information on unusual
         minor planets, routine data on comets and natural satellites,
         and occasional editorial announcements.  They are published
    on behalf of Division F of the International Astronomical Union by the
          Minor Planet Center, Smithsonian Astrophysical Observatory,
                          Cambridge, MA 02138, U.S.A.
			  
             Prepared using the Tamkin Foundation Computer Network
                              MPC at CFA.HARVARD.EDU
            URL https://www.minorplanetcenter.net/    ISSN 1523-6714
                                    2024 JY6                                    
Observations:
     K24J06Y* C2024 05 07.38575114 12 08.648-32 34 12.55         20.86wXEJ222F52
     K24J06Y  C2024 05 07.39488314 12 10.353-32 33 29.29         20.85wXEJ222F52
     K24J06Y  C2024 05 07.41313714 12 13.777-32 32 02.44         20.63wXEJ222F52
     K24J06Y KC2024 05 08.23412714 15 00.292-31 29 35.84         21.02GVEJ222I52
     K24J06Y KC2024 05 08.23567514 15 00.583-31 29 29.76         20.51GVEJ222I52
     K24J06Y KC2024 05 08.23722614 15 00.817-31 29 22.60         20.47GVEJ222I52
     K24J06Y KC2024 05 08.23878914 15 01.105-31 29 15.79         20.76GVEJ222I52
     K24J06Y  C2024 05 08.40762214 15 32.167-31 16 54.69         20.64GVEJ222F51
     K24J06Y  C2024 05 08.40844514 15 32.291-31 16 51.29               VEJ222F51
     K24J06Y KC2024 05 09.23417914 18 00.983-30 19 35.00         21.28GVEJ222I52
     K24J06Y KC2024 05 09.23573414 18 01.231-30 19 28.52         21.40GVEJ222I52
     K24J06Y KC2024 05 09.23727814 18 01.451-30 19 23.30         21.28GVEJ222I52
     K24J06Y KC2024 05 09.23882414 18 01.681-30 19 16.79               VEJ222I52
     K24J06Y KC2024 05 09.52486514 18 48.461-29 59 30.48         21.1 GVEJ222474
     K24J06Y KC2024 05 09.52726614 18 48.869-29 59 20.54         20.7 GVEJ222474
     K24J06Y KC2024 05 09.52966914 18 49.207-29 59 11.11         20.7 GVEJ222474
     K24J06Y KC2024 05 09.53207214 18 49.570-29 59 01.79         20.9 GVEJ222474
Observer details:
474 Mount John Observatory, Lake Tekapo.  Observers A. C. Gilmore, P. M.
    Kilmartin.  Measurer P. M. Kilmartin.  1.0-m f/7.7 Reflector + CCD.
F51 Pan-STARRS 1, Haleakala.  Observers J. Herman, T. Lowe, P. Minguez, A.
    Schultz, I. Smith.  Measurers K. Chambers, T. de Boer, J. Fairlamb, H.
    Gao, M. Huber, C.-C. Lin, E. Magnier, Y. Ramanjooloo, R. Wainscoat, R.
    Weryk.  1.8-m Ritchey-Chretien + CCD.
F52 Pan-STARRS 2, Haleakala.  Observers J. Herman, T. Lowe, P. Minguez, A.
    Schultz, I. Smith.  Measurers K. Chambers, T. de Boer, J. Fairlamb, H.
    Gao, M. Huber, C.-C. Lin, E. Magnier, Y. Ramanjooloo, R. Wainscoat, R.
    Weryk.  1.8-m Ritchey-Chretien + CCD.
I52 Steward Observatory, Mt. Lemmon Station.  Observer H. Groeller.  Measurers
    T. Beuden, V. F. Carvajal, D. Fay, J. B. Fazekas, D. C. Fuls, A. R. Gibbs,
    A. D. Grauer, H. Groeller, J. K. Hogan, R. A. Kowalski, S. M. Larson, G.
    J. Leonard, D. Rankin, R. L. Seaman, F. C. Shelly, K. W. Wierzchos.  1.0-m
    prime focus + CCD.
Orbital elements:
2024 JY6                                                 Earth MOID = 0.0438 AU
Epoch 2024 Mar. 31.0 TT = JDT 2460400.5                 MPC                     
M   5.09995              (2000.0)            P               Q                  
n   0.25859829     Peri.  260.43195     -0.85376758     -0.50966837             
a   2.4399763      Node   248.85890     +0.51115285     -0.78164121             
e   0.6701411      Incl.    6.54990     +0.09901360     -0.35954857             
P   3.81           H   23.69          G   0.15           U   9                  
Residuals in seconds of arc
240507 F52  0.0   0.1+    240508 I52  0.2+  0.1+    240509 I52  0.1-  0.4-
240507 F52  0.1-  0.0     240508 F51  0.0   0.0     240509 474  0.4-  0.4-
240507 F52  0.1-  0.0     240508 F51  0.2-  0.2-    240509 474  0.2+  0.1+
240508 I52  0.0   0.4+    240509 I52  0.1-  0.1-    240509 474  0.0   0.1+
240508 I52  0.3+  0.3-    240509 I52  0.1+  0.2+    240509 474  0.0   0.0
240508 I52  0.1-  0.1+    240509 I52  0.1-  0.7-
Ephemeris:
2024 JY6                 a,e,i = 2.44, 0.67, 7                   q = 0.8048
Date    TT    R. A. (2000) Decl.     Delta      r    Elong.  Phase     V
2024 04 09    03 57 35.8 -19 06 24   0.1347  0.9186    48.9   124.8    24.4
...
2024 04 24    10 22 38.8 -64 26 27   0.07643 1.0412   115.8    60.4    20.4
...
2024 05 02    13 43 06.2 -41 56 40   0.1209  1.1151   151.0    26.0    20.5
...
2024 05 08    14 14 13.8 -31 46 15   0.1705  1.1726   162.0    15.5    21.0
2024 05 09    14 17 19.6 -30 34 45   0.1795  1.1823   163.0    14.5    21.1
2024 05 10    14 20 05.5 -29 29 27   0.1887  1.1921   163.8    13.7    21.2
...
2024 05 16    14 32 07.2 -24 35 15   0.2467  1.2511   165.1    12.0    21.9
...
2024 05 24    14 42 07.2 -20 43 46   0.3316  1.3304   160.9    14.4    22.7
...
2024 06 08    14 55 31.8 -17 19 12   0.5131  1.4791   149.1    20.6    24.1
A. U. Tomatic                (C) Copyright 2024 MPC           M.P.E.C. 2024-J222
    
    
More information about the Iaude
mailing list